Lake Charles, LA

8:26 AM CDT on August 27, 2016 (GMT -0500)
Lake Charles Regional

Weather History for KLCH - September, 2013

Change the Weather History Date:

Saturday, September 14, 2013

  Actual Average Record
Temperature  
Mean Temperature 84 °F 79 °F  
Max Temperature 92 °F 89 °F 99 °F (1939)
Min Temperature 75 °F 70 °F 52 °F (1940)
Degree Days  
Heating Degree Days 0 0  
Month to date heating degree days 0 0  
Since 1 July heating degree days 0 0  
Cooling Degree Days 19 14  
Month to date cooling degree days 263 219  
Year to date cooling degree days 2468 2348  
Growing Degree Days 33 (Base 50)    
Moisture  
Dew Point 71 °F    
Average Humidity 68    
Maximum Humidity 87    
Minimum Humidity 49    
Precipitation  
Precipitation T in 0.19 in 1.69 in (1922)
Month to date precipitation 0.77 2.70  
Year to date precipitation 39.77 40.92  
Snow  
Snow 0.00 in 0.00 in 0.00 in ()
Month to date snowfall 0.0 0.0  
Since 1 July snowfall 0.0 0.0  
Since 1 September snowfall 0.0 0.0  
Snow Depth 0.00 in    
Sea Level Pressure  
Sea Level Pressure 29.92 in    
Wind  
Wind Speed 5 mph (ENE)    
Max Wind Speed 25 mph    
Max Gust Speed 30 mph    
Visibility 10 miles    
Events Rain , Thunderstorm    
T = Trace of Precipitation, MM = Missing Value Source: NWS Daily Summary

Daily Weather History Graph

Daily Weather History Graph

Search for Another Location

Airport or City:

Trip Planner

Search our weather history database for the weather conditions in past years. The results will help you decide how hot, cold, wet, or windy it might be!

Date:

Astronomy

Sep. 14, 2013 Rise Set
Actual Time 6:57 AM CDT 7:19 PM CDT
Civil Twilight 6:33 AM CDT 7:43 PM CDT
Nautical Twilight 6:04 AM CDT 8:11 PM CDT
Astronomical Twilight 5:36 AM CDT 8:39 PM CDT
Moon 3:45 PM CDT (9/14) 1:46 AM CDT (9/14)
Length of Visible Light 13h 10m
Length of Day
12h 22m
Waxing Gibbous, 72% of the Moon is Illuminated
Sep 14
Waxing Gibbous
Sep 19
Full
Sep 26
Last Quarter
Oct 4
New
Oct 11
First Quarter

Hourly Weather History & Observations

Time (CDT) Temp. Heat Index Dew Point Humidity Pressure Visibility Wind Dir Wind Speed Gust Speed Precip Events Conditions
12:53 AM 78.1 °F - 70.0 °F 76% 29.90 in 10.0 mi East 5.8 mph - N/A   Clear
1:53 AM 75.9 °F - 70.0 °F 82% 29.89 in 10.0 mi Calm Calm - N/A   Clear
2:53 AM 75.9 °F - 71.1 °F 85% 29.89 in 10.0 mi NE 3.5 mph - N/A   Clear
3:53 AM 75.9 °F - 71.1 °F 85% 29.89 in 10.0 mi NE 5.8 mph - N/A   Mostly Cloudy
4:53 AM 75.9 °F - 71.1 °F 85% 29.90 in 10.0 mi NNE 4.6 mph - N/A   Mostly Cloudy
5:53 AM 77.0 °F - 71.1 °F 82% 29.91 in 10.0 mi ENE 4.6 mph - N/A   Clear
6:53 AM 75.9 °F - 71.1 °F 85% 29.92 in 10.0 mi NE 6.9 mph - N/A   Clear
7:53 AM 75.0 °F - 70.0 °F 84% 29.94 in 10.0 mi NE 6.9 mph - N/A   Clear
8:53 AM 78.1 °F - 70.0 °F 76% 29.95 in 10.0 mi ENE 10.4 mph - N/A   Clear
9:53 AM 81.0 °F 84.4 °F 70.0 °F 69% 29.96 in 10.0 mi ENE 8.1 mph - N/A   Clear
10:53 AM 84.0 °F 89.6 °F 72.0 °F 67% 29.96 in 10.0 mi East 8.1 mph - N/A   Clear
11:53 AM 88.0 °F 94.7 °F 72.0 °F 59% 29.96 in 10.0 mi NE 5.8 mph - N/A   Clear
12:53 PM 91.0 °F 97.6 °F 71.1 °F 52% 29.95 in 10.0 mi Variable 5.8 mph - N/A   Scattered Clouds
1:53 PM 91.9 °F 97.4 °F 70.0 °F 48% 29.93 in 10.0 mi Variable 3.5 mph - N/A   Overcast
2:53 PM 91.0 °F 96.6 °F 70.0 °F 50% 29.91 in 10.0 mi North 4.6 mph - N/A   Mostly Cloudy
3:53 PM 84.0 °F 90.2 °F 73.0 °F 69% 29.89 in 10.0 mi ESE 8.1 mph - 0.00 in Rain Light Rain
4:21 PM 87.8 °F 91.4 °F 68.0 °F 52% 29.86 in 10.0 mi NE 6.9 mph - 0.00 in Thunderstorm Partly Cloudy
4:53 PM 84.0 °F 90.2 °F 73.0 °F 69% 29.90 in 10.0 mi South 6.9 mph - 0.00 in Thunderstorm Scattered Clouds
5:07 PM 82.4 °F 87.2 °F 71.6 °F 70% 29.89 in 10.0 mi SSE 20.7 mph 29.9 mph N/A   Mostly Cloudy
5:38 PM 80.6 °F 85.4 °F 73.4 °F 79% 29.88 in 10.0 mi SSE 11.5 mph - N/A Thunderstorm Scattered Clouds
5:53 PM 81.0 °F 84.9 °F 71.1 °F 72% 29.91 in 10.0 mi South 8.1 mph - N/A   Partly Cloudy
6:53 PM 81.0 °F 84.4 °F 70.0 °F 69% 29.92 in 10.0 mi SE 5.8 mph - N/A   Mostly Cloudy
7:53 PM 78.1 °F - 71.1 °F 79% 29.94 in 10.0 mi Calm Calm - N/A   Clear
8:53 PM 78.1 °F - 72.0 °F 81% 29.96 in 10.0 mi Calm Calm - N/A   Scattered Clouds
9:53 PM 78.1 °F - 72.0 °F 81% 29.96 in 10.0 mi Calm Calm - N/A   Clear
10:53 PM 78.1 °F - 73.0 °F 84% 29.98 in 10.0 mi ENE 6.9 mph - N/A   Clear
11:53 PM 77.0 °F - 72.0 °F 84% 29.97 in 10.0 mi ENE 4.6 mph - N/A   Clear